Regional Weather Roundup
Issued by NWS

Home | Current Version | Previous Version | Text Only | Print | Product List | Glossary Off
Versions: 1 2 3 4 5 6 7 8 9 10 11 12 13 14 15 16 17 18 19 20 21 22 23 24 25 26 27 28 29 30 31 32 33 34 35 36 37 38 39 40 41 42 43 44 45 46 47 48 49 50

000
ASUS43 KIND 312159
RWRIN

WEATHER ROUNDUP FOR INDIANA
NATIONAL WEATHER SERVICE INDIANAPOLIS IN
600 PM EDT FRI JUL 31 2015

NOTE: "FAIR" INDICATES FEW OR NO CLOUDS BELOW 12,000 FEET WITH NO
SIGNIFICANT WEATHER AND/OR OBSTRUCTIONS TO VISIBILITY.

* - STATION DOES NOT REPORT WEATHER SUCH AS PRECIPITATION OR FOG.

+ - STATION NOT QUALITY CONTROLLED BY THE NATIONAL WEATHER SERVICE.
    USE DATA WITH CAUTION...ESPECIALLY DEWPOINT AND RELATIVE
    HUMIDITY OBSERVATIONS.

INZ001>003-010>013-019-020-312300-
NORTHWEST INDIANA

CITY           SKY/WX    TMP DP  RH WIND       PRES   REMARKS
GARY /AIRPORT/ MOSUNNY   86  48  26 NW14G29   29.94S
RENSSELAER +   SUNNY     84  54  34 W12G21    29.96S

$$

LMZ046-743>745-312300-
SOUTHERN LAKE MICHIGAN

STATION/POSITION TIME  TEMP    WIND        PRES    WAVE
                       AIR SEA DIR/SP/G            HT
                 (UTC) (F)     (DEG/KT/KT) (MB)    (FT)
BURNS HARBOR     2100   79     350/  5/  9 1013.9F
MICHIGAN CITY    2100   80     290/  9/ 10   N/A
5NW MICH CITY    2100   78 75  330/  8/ 10   N/A     1

$$

INZ004-005-014>016-021>024-312300-
NORTH CENTRAL INDIANA

CITY           SKY/WX    TMP DP  RH WIND       PRES   REMARKS
ELKHART        SUNNY     84  50  30 NW14G21   29.93F
GOSHEN         SUNNY     83  56  39 W18G24    29.92F
SOUTH BEND     SUNNY     83  53  35 NW17G26   29.94S

$$

INZ006>009-017-018-025>027-312300-
NORTHEAST INDIANA

CITY           SKY/WX    TMP DP  RH WIND       PRES   REMARKS
ANGOLA *+      SUNNY     82  55  39 NW12      29.92S
FORT WAYNE     MOSUNNY   83  48  29 NW13G21   29.93F

$$

INZ028-029-035-036-043>045-051>053-312300-
WEST CENTRAL INDIANA

CITY           SKY/WX    TMP DP  RH WIND       PRES   REMARKS
CRAWFORDSVL +  SUNNY     82  55  39 W14         N/A
GREENCASTLE +  SUNNY     84  59  42 W9G17     30.00F
LAFAYETTE      SUNNY     83  58  42 W12       29.96S
TERRE HAUTE    MOSUNNY   88  64  44 NW8       29.99F

$$

INZ030>032-037>040-046>048-054>057-064-065-312300-
CENTRAL INDIANA

CITY           SKY/WX    TMP DP  RH WIND       PRES   REMARKS
GREENWOOD *+   MOSUNNY   84  59  42 W9G16     29.98F
INDIANAPOLIS   MOSUNNY   86  61  42 W21       29.97F
-EAGLE CREEK   MOSUNNY   85  63  47 W18G25    29.97S
KOKOMO *+      MOSUNNY   86  61  42 NW20G25   29.94F
MT COMFORT *+  SUNNY     86  48  26 W16       29.97F
SHELBYVILLE    MOSUNNY   86  63  45 W12       29.97F

$$

INZ033-034-041-042-049-050-058-059-312300-
EAST CENTRAL INDIANA

CITY           SKY/WX    TMP DP  RH WIND       PRES   REMARKS
MUNCIE         PTSUNNY   80  62  54 W20G26    29.95S

$$

INZ060-061-067>069-081>083-085>088-312300-
SOUTHWEST INDIANA

CITY           SKY/WX    TMP DP  RH WIND       PRES   REMARKS
EVANSVILLE     MOSUNNY   90  65  43 NW7       30.02F
HUNTINGBURG *+ SUNNY     88  63  42 W9        30.02S

$$

INZ062-063-066-070>080-084-089>092-312300-
SOUTH CENTRAL AND SOUTHEAST INDIANA

CITY           SKY/WX    TMP DP  RH WIND       PRES   REMARKS
BLOOMINGTON    MOSUNNY   86  66  51 W9        30.00F
MADISON *+     SUNNY     86  52  30 W6        30.02F
SEYMOUR +      SUNNY     90  61  37 W10       29.99F

$$



USA.gov is the U.S. government's official web portal to all federal, state and local government web resources and services.